Year,Month,Day,Hour,Minute,Value (Times are PST for temperature in C)
2017,10,29,00,00,5.80
2017,10,29,00,01,5.80
2017,10,29,00,02,5.70
2017,10,29,00,03,5.70
2017,10,29,00,04,5.70
2017,10,29,00,05,5.60
2017,10,29,00,06,5.60
2017,10,29,00,07,5.60
2017,10,29,00,08,5.50
2017,10,29,00,09,5.50
2017,10,29,00,10,5.50
2017,10,29,00,11,5.50
2017,10,29,00,12,5.60
2017,10,29,00,13,5.60
2017,10,29,00,14,5.60
2017,10,29,00,15,5.60
2017,10,29,00,16,5.60
2017,10,29,00,17,5.70
2017,10,29,00,18,5.70
2017,10,29,00,19,5.70
2017,10,29,00,20,5.70
2017,10,29,00,21,5.70
2017,10,29,00,22,5.70
2017,10,29,00,23,5.70
2017,10,29,00,24,5.70
2017,10,29,00,25,5.70
2017,10,29,00,26,5.70
2017,10,29,00,27,5.70
2017,10,29,00,28,5.70
2017,10,29,00,29,5.70
2017,10,29,00,30,5.70
2017,10,29,00,31,5.70
2017,10,29,00,32,5.80
2017,10,29,00,33,5.80
2017,10,29,00,34,5.90
2017,10,29,00,35,6.00
2017,10,29,00,36,6.00
2017,10,29,00,37,6.10
2017,10,29,00,38,6.10
2017,10,29,00,39,6.10
2017,10,29,00,40,6.00
2017,10,29,00,41,6.00
2017,10,29,00,42,6.00
2017,10,29,00,43,5.90
2017,10,29,00,44,5.90
2017,10,29,00,45,5.80
2017,10,29,00,46,5.80
2017,10,29,00,47,5.70
2017,10,29,00,48,5.70
2017,10,29,00,49,5.60
2017,10,29,00,50,5.60
2017,10,29,00,51,5.60
2017,10,29,00,52,5.60
2017,10,29,00,53,5.50
2017,10,29,00,54,5.50
2017,10,29,00,55,5.50
2017,10,29,00,56,5.60
2017,10,29,00,57,5.60
2017,10,29,00,58,5.70
2017,10,29,00,59,5.70
2017,10,29,01,00,5.80
2017,10,29,01,01,5.80
2017,10,29,01,02,5.70
2017,10,29,01,03,5.70
2017,10,29,01,04,5.70
2017,10,29,01,05,5.70
2017,10,29,01,06,5.60
2017,10,29,01,07,5.60
2017,10,29,01,08,5.60
2017,10,29,01,09,5.50
2017,10,29,01,10,5.50
2017,10,29,01,11,5.40
2017,10,29,01,12,5.40
2017,10,29,01,13,5.40
2017,10,29,01,14,5.40
2017,10,29,01,15,5.30
2017,10,29,01,16,5.30
2017,10,29,01,17,5.30
2017,10,29,01,18,5.30
2017,10,29,01,19,5.20
2017,10,29,01,20,5.20
2017,10,29,01,21,5.20
2017,10,29,01,22,5.20
2017,10,29,01,23,5.20
2017,10,29,01,24,5.20
2017,10,29,01,25,5.20
2017,10,29,01,26,5.30
2017,10,29,01,27,5.30
2017,10,29,01,28,5.30
2017,10,29,01,29,5.40
2017,10,29,01,30,5.40
2017,10,29,01,31,5.40
2017,10,29,01,32,5.40
2017,10,29,01,33,5.40
2017,10,29,01,34,5.40
2017,10,29,01,35,5.30
2017,10,29,01,36,5.30
2017,10,29,01,37,5.30
2017,10,29,01,38,5.30
2017,10,29,01,39,5.20
2017,10,29,01,40,5.20
2017,10,29,01,41,5.20
2017,10,29,01,42,5.20
2017,10,29,01,43,5.30
2017,10,29,01,44,5.30
2017,10,29,01,45,5.30
2017,10,29,01,46,5.30
2017,10,29,01,47,5.30
2017,10,29,01,48,5.30
2017,10,29,01,49,5.30
2017,10,29,01,50,5.30
2017,10,29,01,51,5.30
2017,10,29,01,52,5.20
2017,10,29,01,53,5.20
2017,10,29,01,54,5.10
2017,10,29,01,55,5.10
2017,10,29,01,56,5.10
2017,10,29,01,57,5.10
2017,10,29,01,58,5.00
2017,10,29,01,59,4.90
2017,10,29,02,00,4.90
2017,10,29,02,01,4.80
2017,10,29,02,02,4.80
2017,10,29,02,03,4.80
2017,10,29,02,04,4.70
2017,10,29,02,05,4.70
2017,10,29,02,06,4.70
2017,10,29,02,07,4.60
2017,10,29,02,08,4.60
2017,10,29,02,09,4.60
2017,10,29,02,10,4.60
2017,10,29,02,11,4.60
2017,10,29,02,12,4.60
2017,10,29,02,13,4.60
2017,10,29,02,14,4.70
2017,10,29,02,15,4.80
2017,10,29,02,16,4.90
2017,10,29,02,17,5.00
2017,10,29,02,18,5.10
2017,10,29,02,19,5.10
2017,10,29,02,20,5.10
2017,10,29,02,21,5.10
2017,10,29,02,22,5.10
2017,10,29,02,23,5.10
2017,10,29,02,24,5.10
2017,10,29,02,25,5.10
2017,10,29,02,26,5.10
2017,10,29,02,27,5.10
2017,10,29,02,28,5.10
2017,10,29,02,29,5.10
2017,10,29,02,30,5.10
2017,10,29,02,31,5.10
2017,10,29,02,32,5.10
2017,10,29,02,33,5.10
2017,10,29,02,34,5.10
2017,10,29,02,35,5.10
2017,10,29,02,36,5.10
2017,10,29,02,37,5.10
2017,10,29,02,38,5.10
2017,10,29,02,39,5.00
2017,10,29,02,40,5.00
2017,10,29,02,41,5.00
2017,10,29,02,42,5.10
2017,10,29,02,43,5.10
2017,10,29,02,44,5.10
2017,10,29,02,45,5.10
2017,10,29,02,46,5.10
2017,10,29,02,47,5.10
2017,10,29,02,48,5.10
2017,10,29,02,49,5.00
2017,10,29,02,50,5.00
2017,10,29,02,51,4.90
2017,10,29,02,52,4.90
2017,10,29,02,53,4.90
2017,10,29,02,54,4.80
2017,10,29,02,55,4.80
2017,10,29,02,56,4.80
2017,10,29,02,57,4.70
2017,10,29,02,58,4.70
2017,10,29,02,59,4.70
2017,10,29,03,00,4.70
2017,10,29,03,01,4.70
2017,10,29,03,02,4.70
2017,10,29,03,03,4.70
2017,10,29,03,04,4.70
2017,10,29,03,05,4.80
2017,10,29,03,06,4.80
2017,10,29,03,07,4.80
2017,10,29,03,08,4.90
2017,10,29,03,09,5.00
2017,10,29,03,10,5.00
2017,10,29,03,11,5.10
2017,10,29,03,12,5.10
2017,10,29,03,13,5.10
2017,10,29,03,14,5.10
2017,10,29,03,15,5.10
2017,10,29,03,16,5.00
2017,10,29,03,17,5.00
2017,10,29,03,18,4.90
2017,10,29,03,19,4.90
2017,10,29,03,20,4.90
2017,10,29,03,21,4.90
2017,10,29,03,22,4.80
2017,10,29,03,23,4.80
2017,10,29,03,24,4.80
2017,10,29,03,25,4.70
2017,10,29,03,26,4.70
2017,10,29,03,27,4.70
2017,10,29,03,28,4.70
2017,10,29,03,29,4.70
2017,10,29,03,30,4.60
2017,10,29,03,31,4.70
2017,10,29,03,32,4.70
2017,10,29,03,33,4.70
2017,10,29,03,34,4.70
2017,10,29,03,35,4.70
2017,10,29,03,36,4.80
2017,10,29,03,37,4.80
2017,10,29,03,38,4.80
2017,10,29,03,39,4.90
2017,10,29,03,40,4.90
2017,10,29,03,41,4.80
2017,10,29,03,42,4.80
2017,10,29,03,43,4.80
2017,10,29,03,44,4.70
2017,10,29,03,45,4.70
2017,10,29,03,46,4.70
2017,10,29,03,47,4.60
2017,10,29,03,48,4.60
2017,10,29,03,49,4.50
2017,10,29,03,50,4.50
2017,10,29,03,51,4.40
2017,10,29,03,52,4.40
2017,10,29,03,53,4.40
2017,10,29,03,54,4.40
2017,10,29,03,55,4.30
2017,10,29,03,56,4.30
2017,10,29,03,57,4.30
2017,10,29,03,58,4.30
2017,10,29,03,59,4.30
2017,10,29,04,00,4.30
2017,10,29,04,01,4.30
2017,10,29,04,02,4.30
2017,10,29,04,03,4.30
2017,10,29,04,04,4.30
2017,10,29,04,05,4.30
2017,10,29,04,06,4.30
2017,10,29,04,07,4.30
2017,10,29,04,08,4.30
2017,10,29,04,09,4.30
2017,10,29,04,10,4.30
2017,10,29,04,11,4.30
2017,10,29,04,12,4.30
2017,10,29,04,13,4.30
2017,10,29,04,14,4.30
2017,10,29,04,15,4.30
2017,10,29,04,16,4.30
2017,10,29,04,17,4.30
2017,10,29,04,18,4.30
2017,10,29,04,19,4.30
2017,10,29,04,20,4.30
2017,10,29,04,21,4.30
2017,10,29,04,22,4.30
2017,10,29,04,23,4.30
2017,10,29,04,24,4.30
2017,10,29,04,25,4.40
2017,10,29,04,26,4.40
2017,10,29,04,27,4.40
2017,10,29,04,28,4.40
2017,10,29,04,29,4.40
2017,10,29,04,30,4.30
2017,10,29,04,31,4.30
2017,10,29,04,32,4.30
2017,10,29,04,33,4.30
2017,10,29,04,34,4.30
2017,10,29,04,35,4.30
2017,10,29,04,36,4.30
2017,10,29,04,37,4.30
2017,10,29,04,38,4.30
2017,10,29,04,39,4.30
2017,10,29,04,40,4.40
2017,10,29,04,41,4.40
2017,10,29,04,42,4.40
2017,10,29,04,43,4.50
2017,10,29,04,44,4.50
2017,10,29,04,45,4.60
2017,10,29,04,46,4.60
2017,10,29,04,47,4.60
2017,10,29,04,48,4.60
2017,10,29,04,49,4.60
2017,10,29,04,50,4.60
2017,10,29,04,51,4.60
2017,10,29,04,52,4.60
2017,10,29,04,53,4.60
2017,10,29,04,54,4.60
2017,10,29,04,55,4.60
2017,10,29,04,56,4.60
2017,10,29,04,57,4.60
2017,10,29,04,58,4.60
2017,10,29,04,59,4.60
2017,10,29,05,00,4.60
2017,10,29,05,01,4.70
2017,10,29,05,02,4.70
2017,10,29,05,03,4.70
2017,10,29,05,04,4.80
2017,10,29,05,05,4.80
2017,10,29,05,06,4.80
2017,10,29,05,07,4.80
2017,10,29,05,08,4.80
2017,10,29,05,09,4.70
2017,10,29,05,10,4.70
2017,10,29,05,11,4.70
2017,10,29,05,12,4.70
2017,10,29,05,13,4.70
2017,10,29,05,14,4.70
2017,10,29,05,15,4.60
2017,10,29,05,16,4.60
2017,10,29,05,17,4.50
2017,10,29,05,18,4.50
2017,10,29,05,19,4.40
2017,10,29,05,20,4.30
2017,10,29,05,21,4.30
2017,10,29,05,22,4.30
2017,10,29,05,23,4.30
2017,10,29,05,24,4.30
2017,10,29,05,25,4.40
2017,10,29,05,26,4.50
2017,10,29,05,27,4.70
2017,10,29,05,28,4.80
2017,10,29,05,29,4.80
2017,10,29,05,30,4.80
2017,10,29,05,31,4.80
2017,10,29,05,32,4.80
2017,10,29,05,33,4.80
2017,10,29,05,34,4.70
2017,10,29,05,35,4.70
2017,10,29,05,36,4.60
2017,10,29,05,37,4.50
2017,10,29,05,38,4.50
2017,10,29,05,39,4.40
2017,10,29,05,40,4.40
2017,10,29,05,41,4.30
2017,10,29,05,42,4.30
2017,10,29,05,43,4.30
2017,10,29,05,44,4.30
2017,10,29,05,45,4.30
2017,10,29,05,46,4.30
2017,10,29,05,47,4.30
2017,10,29,05,48,4.30
2017,10,29,05,49,4.30
2017,10,29,05,50,4.20
2017,10,29,05,51,4.20
2017,10,29,05,52,4.20
2017,10,29,05,53,4.20
2017,10,29,05,54,4.20
2017,10,29,05,55,4.10
2017,10,29,05,56,4.10
2017,10,29,05,57,4.10
2017,10,29,05,58,4.10
2017,10,29,05,59,4.10
2017,10,29,06,00,4.10
2017,10,29,06,01,4.10
2017,10,29,06,02,4.10
2017,10,29,06,03,4.10
2017,10,29,06,04,4.10
2017,10,29,06,05,4.10
2017,10,29,06,06,4.10
2017,10,29,06,07,4.10
2017,10,29,06,08,4.10
2017,10,29,06,09,4.20
2017,10,29,06,10,4.20
2017,10,29,06,11,4.20
2017,10,29,06,12,4.30
2017,10,29,06,13,4.30
2017,10,29,06,14,4.40
2017,10,29,06,15,4.40
2017,10,29,06,16,4.50
2017,10,29,06,17,4.50
2017,10,29,06,18,4.50
2017,10,29,06,19,4.60
2017,10,29,06,20,4.60
2017,10,29,06,21,4.50
2017,10,29,06,22,4.50
2017,10,29,06,23,4.50
2017,10,29,06,24,4.50
2017,10,29,06,25,4.50
2017,10,29,06,26,4.40
2017,10,29,06,27,4.40
2017,10,29,06,28,4.40
2017,10,29,06,29,4.50
2017,10,29,06,30,4.60
2017,10,29,06,31,4.60
2017,10,29,06,32,4.70
2017,10,29,06,33,4.80
2017,10,29,06,34,4.80
2017,10,29,06,35,4.90
2017,10,29,06,36,5.00
2017,10,29,06,37,5.00
2017,10,29,06,38,5.10
2017,10,29,06,39,5.20
2017,10,29,06,40,5.30
2017,10,29,06,41,5.40
2017,10,29,06,42,5.50
2017,10,29,06,43,5.50
2017,10,29,06,44,5.60
2017,10,29,06,45,5.60
2017,10,29,06,46,5.70
2017,10,29,06,47,5.70
2017,10,29,06,48,5.80
2017,10,29,06,49,5.90
2017,10,29,06,50,6.00
2017,10,29,06,51,6.10
2017,10,29,06,52,6.20
2017,10,29,06,53,6.30
2017,10,29,06,54,6.40
2017,10,29,06,55,6.40
2017,10,29,06,56,6.40
2017,10,29,06,57,6.50
2017,10,29,06,58,6.50
2017,10,29,06,59,6.50
2017,10,29,07,00,6.60
2017,10,29,07,01,6.60
2017,10,29,07,02,6.60
2017,10,29,07,03,6.70
2017,10,29,07,04,6.90
2017,10,29,07,05,7.00
2017,10,29,07,06,7.00
2017,10,29,07,07,7.10
2017,10,29,07,08,7.10
2017,10,29,07,09,7.20
2017,10,29,07,10,7.20
2017,10,29,07,11,7.10
2017,10,29,07,12,7.10
2017,10,29,07,13,7.00
2017,10,29,07,14,7.00
2017,10,29,07,15,7.00
2017,10,29,07,16,7.00
2017,10,29,07,17,7.10
2017,10,29,07,18,7.10
2017,10,29,07,19,7.10
2017,10,29,07,20,7.20
2017,10,29,07,21,7.20
2017,10,29,07,22,7.20
2017,10,29,07,23,7.20
2017,10,29,07,24,7.20
2017,10,29,07,25,7.30
2017,10,29,07,26,7.30
2017,10,29,07,27,7.30
2017,10,29,07,28,7.30
2017,10,29,07,29,7.20
2017,10,29,07,30,7.20
2017,10,29,07,31,7.30
2017,10,29,07,32,7.30
2017,10,29,07,33,7.30
2017,10,29,07,34,7.20
2017,10,29,07,35,7.20
2017,10,29,07,36,7.10
2017,10,29,07,37,7.00
2017,10,29,07,38,6.90
2017,10,29,07,39,6.80
2017,10,29,07,40,6.70
2017,10,29,07,41,6.50
2017,10,29,07,42,6.40
2017,10,29,07,43,6.30
2017,10,29,07,44,6.20
2017,10,29,07,45,6.10
2017,10,29,07,46,6.00
2017,10,29,07,47,5.90
2017,10,29,07,48,5.80
2017,10,29,07,49,5.70
2017,10,29,07,50,5.70
2017,10,29,07,51,5.60
2017,10,29,07,52,5.60
2017,10,29,07,53,5.60
2017,10,29,07,54,5.60
2017,10,29,07,55,5.60
2017,10,29,07,56,5.60
2017,10,29,07,57,5.60
2017,10,29,07,58,5.60
2017,10,29,07,59,5.70
2017,10,29,08,00,5.80
2017,10,29,08,01,5.90
2017,10,29,08,02,6.00
2017,10,29,08,03,6.10
2017,10,29,08,04,6.20
2017,10,29,08,05,6.30
2017,10,29,08,06,6.40
2017,10,29,08,07,6.50
2017,10,29,08,08,6.60
2017,10,29,08,09,6.60
2017,10,29,08,10,6.60
2017,10,29,08,11,6.60
2017,10,29,08,12,6.70
2017,10,29,08,13,6.70
2017,10,29,08,14,6.80
2017,10,29,08,15,6.90
2017,10,29,08,16,7.10
2017,10,29,08,17,7.20
2017,10,29,08,18,7.20
2017,10,29,08,19,7.30
2017,10,29,08,20,7.40
2017,10,29,08,21,7.50
2017,10,29,08,22,7.50
2017,10,29,08,23,7.60
2017,10,29,08,24,7.70
2017,10,29,08,25,7.70
2017,10,29,08,26,7.70
2017,10,29,08,27,7.80
2017,10,29,08,28,7.80
2017,10,29,08,29,7.90
2017,10,29,08,30,7.90
2017,10,29,08,31,7.90
2017,10,29,08,32,7.90
2017,10,29,08,33,7.90
2017,10,29,08,34,8.00
2017,10,29,08,35,8.00
2017,10,29,08,36,8.10
2017,10,29,08,37,8.10
2017,10,29,08,38,8.10
2017,10,29,08,39,8.20
2017,10,29,08,40,8.20
2017,10,29,08,41,8.20
2017,10,29,08,42,8.20
2017,10,29,08,43,8.20
2017,10,29,08,44,8.20
2017,10,29,08,45,8.20
2017,10,29,08,46,8.20
2017,10,29,08,47,8.20
2017,10,29,08,48,8.20
2017,10,29,08,49,8.30
2017,10,29,08,50,8.30
2017,10,29,08,51,8.20
2017,10,29,08,52,8.30
2017,10,29,08,53,8.30
2017,10,29,08,54,8.30
2017,10,29,08,55,8.30
2017,10,29,08,56,8.40
2017,10,29,08,57,8.40
2017,10,29,08,58,8.50
2017,10,29,08,59,8.60
2017,10,29,09,00,8.60
2017,10,29,09,01,8.70
2017,10,29,09,02,8.70
2017,10,29,09,03,8.80
2017,10,29,09,04,8.80
2017,10,29,09,05,8.90
2017,10,29,09,06,8.90
2017,10,29,09,07,9.00
2017,10,29,09,08,9.10
2017,10,29,09,09,9.10
2017,10,29,09,10,9.20
2017,10,29,09,11,9.20
2017,10,29,09,12,9.30
2017,10,29,09,13,9.40
2017,10,29,09,14,9.50
2017,10,29,09,15,9.60
2017,10,29,09,16,9.60
2017,10,29,09,17,9.70
2017,10,29,09,18,9.70
2017,10,29,09,19,9.80
2017,10,29,09,20,9.80
2017,10,29,09,21,9.90
2017,10,29,09,22,9.90
2017,10,29,09,23,9.90
2017,10,29,09,24,9.90
2017,10,29,09,25,10.00
2017,10,29,09,26,10.00
2017,10,29,09,27,10.10
2017,10,29,09,28,10.10
2017,10,29,09,29,10.10
2017,10,29,09,30,10.10
2017,10,29,09,31,10.20
2017,10,29,09,32,10.20
2017,10,29,09,33,10.20
2017,10,29,09,34,10.30
2017,10,29,09,35,10.30
2017,10,29,09,36,10.40
2017,10,29,09,37,10.40
2017,10,29,09,38,10.40
2017,10,29,09,39,10.40
2017,10,29,09,40,10.50
2017,10,29,09,41,10.50
2017,10,29,09,42,10.50
2017,10,29,09,43,10.50
2017,10,29,09,44,10.60
2017,10,29,09,45,10.60
2017,10,29,09,46,10.60
2017,10,29,09,47,10.60
2017,10,29,09,48,10.70
2017,10,29,09,49,10.70
2017,10,29,09,50,10.70
2017,10,29,09,51,10.70
2017,10,29,09,52,10.70
2017,10,29,09,53,10.70
2017,10,29,09,54,10.70
2017,10,29,09,55,10.80
2017,10,29,09,56,10.80
2017,10,29,09,57,10.80
2017,10,29,09,58,10.80
2017,10,29,09,59,10.90
2017,10,29,10,00,10.90
2017,10,29,10,01,11.00
2017,10,29,10,02,11.00
2017,10,29,10,03,11.10
2017,10,29,10,04,11.10
2017,10,29,10,05,11.20
2017,10,29,10,06,11.20
2017,10,29,10,07,11.30
2017,10,29,10,08,11.30
2017,10,29,10,09,11.30
2017,10,29,10,10,11.40
2017,10,29,10,11,11.40
2017,10,29,10,12,11.50
2017,10,29,10,13,11.50
2017,10,29,10,14,11.60
2017,10,29,10,15,11.60
2017,10,29,10,16,11.60
2017,10,29,10,17,11.70
2017,10,29,10,18,11.70
2017,10,29,10,19,11.80
2017,10,29,10,20,11.80
2017,10,29,10,21,11.90
2017,10,29,10,22,11.90
2017,10,29,10,23,12.00
2017,10,29,10,24,12.10
2017,10,29,10,25,12.10
2017,10,29,10,26,12.20
2017,10,29,10,27,12.20
2017,10,29,10,28,12.30
2017,10,29,10,29,12.40
2017,10,29,10,30,12.40
2017,10,29,10,31,12.40
2017,10,29,10,32,12.50
2017,10,29,10,33,12.50
2017,10,29,10,34,12.60
2017,10,29,10,35,12.60
2017,10,29,10,36,12.60
2017,10,29,10,37,12.60
2017,10,29,10,38,12.70
2017,10,29,10,39,12.70
2017,10,29,10,40,12.70
2017,10,29,10,41,12.70
2017,10,29,10,42,12.80
2017,10,29,10,43,12.80
2017,10,29,10,44,12.80
2017,10,29,10,45,12.80
2017,10,29,10,46,12.80
2017,10,29,10,47,12.90
2017,10,29,10,48,12.90
2017,10,29,10,49,12.90
2017,10,29,10,50,12.90
2017,10,29,10,51,13.00
2017,10,29,10,52,13.00
2017,10,29,10,53,13.00
2017,10,29,10,54,13.10
2017,10,29,10,55,13.10
2017,10,29,10,56,13.10
2017,10,29,10,57,13.10
2017,10,29,10,58,13.10
2017,10,29,10,59,13.10
2017,10,29,11,00,13.20
2017,10,29,11,01,13.20
2017,10,29,11,02,13.20
2017,10,29,11,03,13.20
2017,10,29,11,04,13.30
2017,10,29,11,05,13.30
2017,10,29,11,06,13.40
2017,10,29,11,07,13.40
2017,10,29,11,08,13.40
2017,10,29,11,09,13.50
2017,10,29,11,10,13.50
2017,10,29,11,11,13.60
2017,10,29,11,12,13.60
2017,10,29,11,13,13.60
2017,10,29,11,14,13.70
2017,10,29,11,15,13.70
2017,10,29,11,16,13.80
2017,10,29,11,17,13.80
2017,10,29,11,18,13.90
2017,10,29,11,19,13.90
2017,10,29,11,20,13.90
2017,10,29,11,21,14.00
2017,10,29,11,22,14.10
2017,10,29,11,23,14.10
2017,10,29,11,24,14.20
2017,10,29,11,25,14.30
2017,10,29,11,26,14.30
2017,10,29,11,27,14.30
2017,10,29,11,28,14.40
2017,10,29,11,29,14.40
2017,10,29,11,30,14.40
2017,10,29,11,31,14.40
2017,10,29,11,32,14.50
2017,10,29,11,33,14.50
2017,10,29,11,34,14.60
2017,10,29,11,35,14.60
2017,10,29,11,36,14.60
2017,10,29,11,37,14.60
2017,10,29,11,38,14.60
2017,10,29,11,39,14.60
2017,10,29,11,40,14.60
2017,10,29,11,41,14.60
2017,10,29,11,42,14.60
2017,10,29,11,43,14.60
2017,10,29,11,44,14.60
2017,10,29,11,45,14.60
2017,10,29,11,46,14.50
2017,10,29,11,47,14.50
2017,10,29,11,48,14.40
2017,10,29,11,49,14.40
2017,10,29,11,50,14.40
2017,10,29,11,51,14.40
2017,10,29,11,52,14.40
2017,10,29,11,53,14.30
2017,10,29,11,54,14.30
2017,10,29,11,55,14.20
2017,10,29,11,56,14.20
2017,10,29,11,57,14.20
2017,10,29,11,58,14.10
2017,10,29,11,59,14.00
2017,10,29,12,00,13.90
2017,10,29,12,01,13.90
2017,10,29,12,02,13.90
2017,10,29,12,03,13.90
2017,10,29,12,04,14.00
2017,10,29,12,05,14.00
2017,10,29,12,06,14.10
2017,10,29,12,07,14.10
2017,10,29,12,08,14.10
2017,10,29,12,09,14.20
2017,10,29,12,10,14.20
2017,10,29,12,11,14.20
2017,10,29,12,12,14.20
2017,10,29,12,13,14.20
2017,10,29,12,14,14.20
2017,10,29,12,15,14.20
2017,10,29,12,16,14.20
2017,10,29,12,17,14.30
2017,10,29,12,18,14.30
2017,10,29,12,19,14.30
2017,10,29,12,20,14.30
2017,10,29,12,21,14.30
2017,10,29,12,22,14.40
2017,10,29,12,23,14.40
2017,10,29,12,24,14.40
2017,10,29,12,25,14.40
2017,10,29,12,26,14.50
2017,10,29,12,27,14.60
2017,10,29,12,28,14.60
2017,10,29,12,29,14.60
2017,10,29,12,30,14.70
2017,10,29,12,31,14.70
2017,10,29,12,32,14.80
2017,10,29,12,33,14.80
2017,10,29,12,34,14.80
2017,10,29,12,35,15.00
2017,10,29,12,36,15.00
2017,10,29,12,37,15.00
2017,10,29,12,38,15.00
2017,10,29,12,39,15.00
2017,10,29,12,40,15.00
2017,10,29,12,41,15.00
2017,10,29,12,42,15.00
2017,10,29,12,43,15.00
2017,10,29,12,44,15.00
2017,10,29,12,45,15.00
2017,10,29,12,46,15.00
2017,10,29,12,47,15.00
2017,10,29,12,48,15.00
2017,10,29,12,49,15.00
2017,10,29,12,50,15.00
2017,10,29,12,51,15.00
2017,10,29,12,52,15.00
2017,10,29,12,53,15.00
2017,10,29,12,54,15.00
2017,10,29,12,55,15.00
2017,10,29,12,56,15.10
2017,10,29,12,57,15.20
2017,10,29,12,58,15.30
2017,10,29,12,59,15.30
2017,10,29,13,00,15.40
2017,10,29,13,01,15.40
2017,10,29,13,02,15.50
2017,10,29,13,03,15.50
2017,10,29,13,04,15.60
2017,10,29,13,05,15.60
2017,10,29,13,06,15.70
2017,10,29,13,07,15.70
2017,10,29,13,08,15.70
2017,10,29,13,09,15.80
2017,10,29,13,10,15.70
2017,10,29,13,11,15.60
2017,10,29,13,12,15.60
2017,10,29,13,13,15.50
2017,10,29,13,14,15.40
2017,10,29,13,15,15.30
2017,10,29,13,16,15.30
2017,10,29,13,17,15.30
2017,10,29,13,18,15.30
2017,10,29,13,19,15.30
2017,10,29,13,20,15.30
2017,10,29,13,21,15.30
2017,10,29,13,22,15.20
2017,10,29,13,23,15.20
2017,10,29,13,24,15.10
2017,10,29,13,25,15.00
2017,10,29,13,26,15.00
2017,10,29,13,27,15.00
2017,10,29,13,28,15.00
2017,10,29,13,29,15.00
2017,10,29,13,30,15.00
2017,10,29,13,31,15.00
2017,10,29,13,32,15.00
2017,10,29,13,33,15.00
2017,10,29,13,34,15.00
2017,10,29,13,35,15.00
2017,10,29,13,36,15.00
2017,10,29,13,37,15.00
2017,10,29,13,38,15.00
2017,10,29,13,39,15.00
2017,10,29,13,40,15.10
2017,10,29,13,41,15.10
2017,10,29,13,42,15.10
2017,10,29,13,43,15.10
2017,10,29,13,44,15.20
2017,10,29,13,45,15.20
2017,10,29,13,46,15.20
2017,10,29,13,47,15.30
2017,10,29,13,48,15.40
2017,10,29,13,49,15.40
2017,10,29,13,50,15.60
2017,10,29,13,51,15.70
2017,10,29,13,52,15.80
2017,10,29,13,53,15.90
2017,10,29,13,54,16.00
2017,10,29,13,55,16.10
2017,10,29,13,56,16.20
2017,10,29,13,57,16.30
2017,10,29,13,58,16.40
2017,10,29,13,59,16.40
2017,10,29,14,00,16.50
2017,10,29,14,01,16.50
2017,10,29,14,02,16.50
2017,10,29,14,03,16.50
2017,10,29,14,04,16.50
2017,10,29,14,05,16.60
2017,10,29,14,06,16.60
2017,10,29,14,07,16.60
2017,10,29,14,08,16.70
2017,10,29,14,09,16.70
2017,10,29,14,10,16.70
2017,10,29,14,11,16.70
2017,10,29,14,12,16.80
2017,10,29,14,13,16.80
2017,10,29,14,14,16.80
2017,10,29,14,15,16.90
2017,10,29,14,16,16.90
2017,10,29,14,17,16.90
2017,10,29,14,18,16.80
2017,10,29,14,19,16.70
2017,10,29,14,20,16.60
2017,10,29,14,21,16.50
2017,10,29,14,22,16.40
2017,10,29,14,23,16.30
2017,10,29,14,24,16.20
2017,10,29,14,25,16.20
2017,10,29,14,26,16.20
2017,10,29,14,27,16.10
2017,10,29,14,28,16.10
2017,10,29,14,29,16.10
2017,10,29,14,30,16.00
2017,10,29,14,31,16.00
2017,10,29,14,32,15.90
2017,10,29,14,33,15.90
2017,10,29,14,34,15.90
2017,10,29,14,35,15.90
2017,10,29,14,36,15.80
2017,10,29,14,37,15.80
2017,10,29,14,38,15.80
2017,10,29,14,39,15.80
2017,10,29,14,40,15.70
2017,10,29,14,41,15.70
2017,10,29,14,42,15.70
2017,10,29,14,43,15.70
2017,10,29,14,44,15.60
2017,10,29,14,45,15.60
2017,10,29,14,46,15.50
2017,10,29,14,47,15.50
2017,10,29,14,48,15.40
2017,10,29,14,49,15.40
2017,10,29,14,50,15.50
2017,10,29,14,51,15.50
2017,10,29,14,52,15.60
2017,10,29,14,53,15.60
2017,10,29,14,54,15.60
2017,10,29,14,55,15.70
2017,10,29,14,56,15.70
2017,10,29,14,57,15.70
2017,10,29,14,58,15.70
2017,10,29,14,59,15.80
2017,10,29,15,00,15.80
2017,10,29,15,01,15.80
2017,10,29,15,02,15.80
2017,10,29,15,03,15.90
2017,10,29,15,04,15.90
2017,10,29,15,05,15.90
2017,10,29,15,06,15.90
2017,10,29,15,07,16.00
2017,10,29,15,08,16.10
2017,10,29,15,09,16.10
2017,10,29,15,10,16.20
2017,10,29,15,11,16.20
2017,10,29,15,12,16.30
2017,10,29,15,13,16.30
2017,10,29,15,14,16.40
2017,10,29,15,15,16.50
2017,10,29,15,16,16.50
2017,10,29,15,17,16.60
2017,10,29,15,18,16.60
2017,10,29,15,19,16.60
2017,10,29,15,20,16.70
2017,10,29,15,21,16.70
2017,10,29,15,22,16.70
2017,10,29,15,23,16.70
2017,10,29,15,24,16.70
2017,10,29,15,25,16.70
2017,10,29,15,26,16.70
2017,10,29,15,27,16.60
2017,10,29,15,28,16.60
2017,10,29,15,29,16.60
2017,10,29,15,30,16.60
2017,10,29,15,31,16.60
2017,10,29,15,32,16.70
2017,10,29,15,33,16.70
2017,10,29,15,34,16.70
2017,10,29,15,35,16.70
2017,10,29,15,36,16.70
2017,10,29,15,37,16.80
2017,10,29,15,38,16.80
2017,10,29,15,39,16.80
2017,10,29,15,40,16.90
2017,10,29,15,41,16.90
2017,10,29,15,42,16.90
2017,10,29,15,43,16.90
2017,10,29,15,44,16.90
2017,10,29,15,45,16.90
2017,10,29,15,46,16.90
2017,10,29,15,47,16.90
2017,10,29,15,48,16.90
2017,10,29,15,49,16.90
2017,10,29,15,50,17.00
2017,10,29,15,51,16.90
2017,10,29,15,52,17.00
2017,10,29,15,53,17.00
2017,10,29,15,54,17.00
2017,10,29,15,55,17.00
2017,10,29,15,56,17.10
2017,10,29,15,57,17.10
2017,10,29,15,58,17.10
2017,10,29,15,59,17.10
2017,10,29,16,00,17.10
2017,10,29,16,01,17.10
2017,10,29,16,02,17.10
2017,10,29,16,03,17.10
2017,10,29,16,04,17.10
2017,10,29,16,05,17.10
2017,10,29,16,06,17.10
2017,10,29,16,07,17.10
2017,10,29,16,08,17.10
2017,10,29,16,09,17.10
2017,10,29,16,10,17.10
2017,10,29,16,11,17.10
2017,10,29,16,12,17.10
2017,10,29,16,13,17.10
2017,10,29,16,14,17.10
2017,10,29,16,15,17.10
2017,10,29,16,16,17.10
2017,10,29,16,17,17.10
2017,10,29,16,18,17.20
2017,10,29,16,19,17.20
2017,10,29,16,20,17.20
2017,10,29,16,21,17.20
2017,10,29,16,22,17.20
2017,10,29,16,23,17.20
2017,10,29,16,24,17.20
2017,10,29,16,25,17.20
2017,10,29,16,26,17.30
2017,10,29,16,27,17.30
2017,10,29,16,28,17.30
2017,10,29,16,29,17.30
2017,10,29,16,30,17.30
2017,10,29,16,31,17.30
2017,10,29,16,32,17.30
2017,10,29,16,33,17.30
2017,10,29,16,34,17.30
2017,10,29,16,35,17.20
2017,10,29,16,36,17.20
2017,10,29,16,37,17.20
2017,10,29,16,38,17.10
2017,10,29,16,39,17.10
2017,10,29,16,40,17.00
2017,10,29,16,41,17.00
2017,10,29,16,42,16.90
2017,10,29,16,43,16.90
2017,10,29,16,44,16.90
2017,10,29,16,45,16.80
2017,10,29,16,46,16.80
2017,10,29,16,47,16.70
2017,10,29,16,48,16.70
2017,10,29,16,49,16.60
2017,10,29,16,50,16.60
2017,10,29,16,51,16.50
2017,10,29,16,52,16.50
2017,10,29,16,53,16.40
2017,10,29,16,54,16.30
2017,10,29,16,55,16.30
2017,10,29,16,56,16.30
2017,10,29,16,57,16.20
2017,10,29,16,58,16.20
2017,10,29,16,59,16.10
2017,10,29,17,00,16.00
2017,10,29,17,01,16.00
2017,10,29,17,02,15.80
2017,10,29,17,03,15.70
2017,10,29,17,04,15.60
2017,10,29,17,05,15.50
2017,10,29,17,06,15.50
2017,10,29,17,07,15.40
2017,10,29,17,08,15.30
2017,10,29,17,09,15.30
2017,10,29,17,10,15.30
2017,10,29,17,11,15.30
2017,10,29,17,12,15.30
2017,10,29,17,13,15.30
2017,10,29,17,14,15.30
2017,10,29,17,15,15.30
2017,10,29,17,16,15.30
2017,10,29,17,17,15.40
2017,10,29,17,18,15.40
2017,10,29,17,19,15.40
2017,10,29,17,20,15.40
2017,10,29,17,21,15.40
2017,10,29,17,22,15.40
2017,10,29,17,23,15.40
2017,10,29,17,24,15.40
2017,10,29,17,25,15.40
2017,10,29,17,26,15.40
2017,10,29,17,27,15.40
2017,10,29,17,28,15.40
2017,10,29,17,29,15.40
2017,10,29,17,30,15.30
2017,10,29,17,31,15.30
2017,10,29,17,32,15.30
2017,10,29,17,33,15.30
2017,10,29,17,34,15.20
2017,10,29,17,35,15.20
2017,10,29,17,36,15.20
2017,10,29,17,37,15.10
2017,10,29,17,38,15.00
2017,10,29,17,39,15.00
2017,10,29,17,40,15.00
2017,10,29,17,41,15.00
2017,10,29,17,42,15.00
2017,10,29,17,43,15.00
2017,10,29,17,44,15.00